�������l�o���
Date,Time,MP-1(��Sv/h),MP-2(��Sv/h),MP-3(��Sv/h),MP-4(��Sv/h),MP-5(��Sv/h),MP-6(��Sv/h),MP-7(��Sv/h),MP-8(��Sv/h),����,����(m/s),���J
2021/03/17,00:00,0.640,0.932,0.593,1.165,0.814,0.373,0.658,0.619,���쐼,11.6,��
2021/03/17,00:10,0.638,0.932,0.592,1.164,0.813,0.373,0.658,0.618,���쐼,12.0,��
2021/03/17,00:20,0.638,0.933,0.594,1.167,0.817,0.373,0.656,0.618,���쐼,10.8,��
2021/03/17,00:30,0.639,0.933,0.591,1.167,0.816,0.375,0.657,0.617,���쐼,10.5,��
2021/03/17,00:40,0.640,0.933,0.593,1.166,0.814,0.373,0.657,0.617,���쐼,6.4,��
2021/03/17,00:50,0.637,0.934,0.593,1.167,0.814,0.373,0.657,0.618,��,6.1,��
2021/03/17,01:00,0.638,0.933,0.592,1.165,0.815,0.374,0.657,0.618,���쐼,6.4,��
2021/03/17,01:10,0.637,0.934,0.591,1.168,0.815,0.372,0.657,0.617,���쐼,7.3,��
2021/03/17,01:20,0.638,0.932,0.591,1.168,0.816,0.373,0.657,0.618,��,8.4,��
2021/03/17,01:30,0.639,0.934,0.591,1.167,0.817,0.375,0.657,0.617,��,8.3,��
2021/03/17,01:40,0.638,0.932,0.593,1.168,0.814,0.374,0.657,0.619,���쐼,9.8,��
2021/03/17,01:50,0.637,0.932,0.592,1.166,0.815,0.374,0.658,0.618,��,10.9,��
2021/03/17,02:00,0.639,0.934,0.593,1.168,0.816,0.376,0.659,0.619,��,10.6,��
2021/03/17,02:10,0.638,0.932,0.593,1.168,0.815,0.374,0.658,0.617,��,8.9,��
2021/03/17,02:20,0.637,0.931,0.592,1.168,0.816,0.374,0.659,0.618,��,7.3,��
2021/03/17,02:30,0.638,0.931,0.592,1.168,0.815,0.375,0.657,0.619,��,7.3,��
2021/03/17,02:40,0.636,0.933,0.593,1.167,0.815,0.375,0.658,0.616,��,5.6,��
2021/03/17,02:50,0.637,0.931,0.592,1.168,0.815,0.373,0.659,0.617,��,4.9,��
2021/03/17,03:00,0.639,0.932,0.593,1.168,0.815,0.374,0.658,0.618,��,3.8,��
2021/03/17,03:10,0.639,0.932,0.590,1.168,0.814,0.373,0.660,0.616,��,3.1,��
2021/03/17,03:20,0.638,0.928,0.593,1.169,0.816,0.376,0.658,0.617,���k��,5.7,��
2021/03/17,03:30,0.637,0.932,0.592,1.167,0.814,0.375,0.658,0.617,���k��,6.1,��
2021/03/17,03:40,0.638,0.933,0.591,1.170,0.814,0.373,0.658,0.618,��,6.3,��
2021/03/17,03:50,0.638,0.932,0.592,1.169,0.814,0.372,0.657,0.618,��,6.8,��
2021/03/17,04:00,0.638,0.933,0.593,1.170,0.816,0.373,0.659,0.618,��,8.8,��
2021/03/17,04:10,0.639,0.931,0.593,1.169,0.815,0.375,0.659,0.618,��,7.7,��
2021/03/17,04:20,0.637,0.931,0.592,1.169,0.816,0.375,0.660,0.617,��,7.6,��
2021/03/17,04:30,0.636,0.934,0.593,1.169,0.815,0.374,0.660,0.617,���k��,7.5,��
2021/03/17,04:40,0.639,0.932,0.593,1.168,0.815,0.373,0.659,0.619,���k��,7.6,��
2021/03/17,04:50,0.638,0.933,0.593,1.169,0.816,0.373,0.661,0.617,���k��,6.7,��
2021/03/17,05:00,0.637,0.931,0.592,1.172,0.816,0.373,0.659,0.618,���k��,7.0,��
2021/03/17,05:10,0.637,0.933,0.594,1.170,0.815,0.374,0.656,0.617,��,6.3,��
2021/03/17,05:20,0.638,0.932,0.592,1.168,0.815,0.374,0.660,0.617,��,8.3,��
2021/03/17,05:30,0.639,0.932,0.594,1.169,0.817,0.373,0.661,0.618,��,8.6,��
2021/03/17,05:40,0.637,0.932,0.593,1.169,0.815,0.374,0.659,0.619,��,6.6,��
2021/03/17,05:50,0.638,0.931,0.591,1.170,0.816,0.373,0.659,0.619,��,7.9,��
2021/03/17,06:00,0.639,0.933,0.593,1.170,0.814,0.372,0.660,0.617,��,7.9,��
2021/03/17,06:10,0.638,0.933,0.591,1.168,0.815,0.373,0.658,0.616,��,7.9,��
2021/03/17,06:20,0.638,0.936,0.591,1.168,0.815,0.373,0.660,0.619,��,7.5,��
2021/03/17,06:30,0.639,0.934,0.592,1.170,0.815,0.374,0.659,0.617,��,8.0,��
2021/03/17,06:40,0.639,0.933,0.593,1.170,0.815,0.373,0.659,0.618,��,6.8,��
2021/03/17,06:50,0.638,0.930,0.592,1.170,0.816,0.374,0.658,0.618,���k��,7.7,��
2021/03/17,07:00,0.637,0.930,0.592,1.170,0.816,0.373,0.661,0.618,��,7.0,��
2021/03/17,07:10,0.637,0.932,0.591,1.171,0.816,0.374,0.660,0.617,��,8.1,��
2021/03/17,07:20,0.637,0.933,0.592,1.170,0.816,0.374,0.659,0.618,��,7.5,��
2021/03/17,07:30,0.639,0.932,0.593,1.171,0.816,0.373,0.659,0.617,��,9.3,��
2021/03/17,07:40,0.637,0.935,0.592,1.170,0.817,0.374,0.660,0.620,��,9.5,��
2021/03/17,07:50,0.638,0.934,0.593,1.171,0.816,0.373,0.658,0.618,��,9.7,��
2021/03/17,08:00,0.637,0.935,0.592,1.174,0.818,0.373,0.660,0.619,���k��,9.7,��
2021/03/17,08:10,0.638,0.934,0.593,1.170,0.815,0.374,0.659,0.619,���k��,7.4,��
2021/03/17,08:20,0.640,0.934,0.589,1.169,0.818,0.373,0.659,0.619,���k��,10.2,��
2021/03/17,08:30,0.639,0.933,0.591,1.170,0.817,0.374,0.658,0.620,�k��,8.3,��
2021/03/17,08:40,0.638,0.933,0.593,1.173,0.817,0.374,0.659,0.618,���k��,7.3,��
2021/03/17,08:50,0.639,0.932,0.592,1.172,0.818,0.373,0.657,0.620,���k��,9.4,��
2021/03/17,09:00,0.639,0.931,0.593,1.172,0.817,0.373,0.657,0.619,��,8.0,��
2021/03/17,09:10,0.637,0.930,0.592,1.171,0.815,0.374,0.659,0.621,��,7.2,��
2021/03/17,09:20,0.639,0.934,0.593,1.169,0.818,0.375,0.658,0.618,��,9.1,��
2021/03/17,09:30,0.639,0.929,0.593,1.171,0.817,0.373,0.656,0.620,��,10.8,��
2021/03/17,09:40,0.641,0.933,0.594,1.171,0.818,0.373,0.658,0.618,��,10.7,��
2021/03/17,09:50,0.640,0.932,0.593,1.174,0.818,0.373,0.657,0.618,��,10.9,��
2021/03/17,10:00,0.640,0.930,0.593,1.173,0.818,0.375,0.656,0.617,��,12.2,��
2021/03/17,10:10,0.640,0.932,0.592,1.173,0.818,0.374,0.657,0.618,���쐼,10.5,��
2021/03/17,10:20,0.640,0.932,0.594,1.174,0.817,0.375,0.658,0.619,��,11.6,��
2021/03/17,10:30,0.640,0.931,0.593,1.174,0.819,0.374,0.659,0.616,��,9.2,��
2021/03/17,10:40,0.639,0.936,0.593,1.173,0.817,0.375,0.657,0.618,��,12.1,��
2021/03/17,10:50,0.642,0.933,0.593,1.172,0.819,0.375,0.658,0.619,��,11.0,��
2021/03/17,11:00,0.641,0.936,0.594,1.173,0.818,0.374,0.658,0.617,��,11.3,��
2021/03/17,11:10,0.642,0.938,0.595,1.175,0.819,0.373,0.657,0.618,��,10.5,��
2021/03/17,11:20,0.640,0.933,0.593,1.173,0.819,0.372,0.657,0.615,��,9.7,��
2021/03/17,11:30,0.640,0.934,0.594,1.175,0.819,0.374,0.658,0.618,��,12.1,��
2021/03/17,11:40,0.640,0.935,0.594,1.175,0.816,0.373,0.657,0.617,��,13.8,��
2021/03/17,11:50,0.639,0.933,0.592,1.174,0.817,0.374,0.659,0.616,��,10.5,��
2021/03/17,12:00,0.640,0.935,0.593,1.173,0.818,0.375,0.658,0.617,��,9.2,��
2021/03/17,12:10,0.640,0.934,0.594,1.175,0.818,0.374,0.659,0.616,��,13.3,��
2021/03/17,12:20,0.640,0.935,0.593,1.175,0.820,0.374,0.660,0.616,��,9.4,��
2021/03/17,12:30,0.642,0.936,0.592,1.176,0.819,0.375,0.660,0.618,��,11.7,��
2021/03/17,12:40,0.640,0.937,0.594,1.176,0.818,0.375,0.657,0.616,��,12.8,��
2021/03/17,12:50,0.640,0.936,0.595,1.176,0.819,0.376,0.658,0.617,���쐼,11.1,��
2021/03/17,13:00,0.640,0.935,0.594,1.176,0.817,0.376,0.659,0.618,���쐼,10.5,��
2021/03/17,13:10,0.639,0.936,0.595,1.174,0.819,0.376,0.658,0.616,��,10.8,��
2021/03/17,13:20,0.640,0.936,0.592,1.177,0.819,0.375,0.660,0.617,���쐼,11.3,��
2021/03/17,13:30,0.640,0.934,0.593,1.176,0.819,0.377,0.660,0.617,��,9.2,��
2021/03/17,13:40,0.638,0.934,0.593,1.177,0.822,0.377,0.659,0.618,��,8.3,��
2021/03/17,13:50,0.642,0.933,0.592,1.177,0.820,0.376,0.660,0.616,��,9.7,��
2021/03/17,14:00,0.639,0.937,0.593,1.177,0.818,0.376,0.660,0.619,��,9.4,��
2021/03/17,14:10,0.641,0.936,0.593,1.173,0.821,0.376,0.658,0.617,��,9.4,��
2021/03/17,14:20,0.640,0.934,0.592,1.175,0.821,0.374,0.659,0.617,��,7.5,��
2021/03/17,14:30,0.640,0.935,0.593,1.176,0.820,0.377,0.660,0.618,��,7.7,��
2021/03/17,14:40,0.640,0.936,0.590,1.176,0.820,0.374,0.659,0.616,��,9.8,��
2021/03/17,14:50,0.641,0.938,0.592,1.177,0.820,0.375,0.660,0.616,���쐼,8.6,��
2021/03/17,15:00,0.641,0.937,0.592,1.178,0.821,0.375,0.660,0.616,��,9.2,��
2021/03/17,15:10,0.641,0.938,0.592,1.176,0.820,0.376,0.659,0.618,��,8.5,��
2021/03/17,15:20,0.639,0.936,0.592,1.176,0.822,0.377,0.660,0.616,��,9.1,��
2021/03/17,15:30,0.642,0.937,0.593,1.178,0.822,0.375,0.659,0.617,��,7.9,��
2021/03/17,15:40,0.641,0.938,0.594,1.177,0.821,0.375,0.659,0.616,��,9.0,��
2021/03/17,15:50,0.641,0.938,0.594,1.179,0.819,0.376,0.658,0.616,��,8.1,��
2021/03/17,16:00,0.640,0.937,0.595,1.178,0.822,0.376,0.659,0.616,��,9.9,��
2021/03/17,16:10,0.640,0.939,0.594,1.178,0.820,0.375,0.660,0.618,��,10.2,��
2021/03/17,16:20,0.641,0.939,0.596,1.178,0.821,0.377,0.657,0.617,���쐼,9.4,��
2021/03/17,16:30,0.640,0.938,0.595,1.177,0.821,0.377,0.658,0.619,��,7.3,��
2021/03/17,16:40,0.640,0.937,0.594,1.177,0.822,0.376,0.657,0.621,��,9.2,��
2021/03/17,16:50,0.639,0.938,0.595,1.177,0.820,0.374,0.658,0.620,��,7.5,��
2021/03/17,17:00,0.641,0.942,0.595,1.179,0.821,0.377,0.658,0.618,��,8.1,��
2021/03/17,17:10,0.641,0.941,0.594,1.174,0.819,0.375,0.659,0.618,��,5.7,��
2021/03/17,17:20,0.641,0.940,0.594,1.179,0.821,0.377,0.659,0.620,���k��,7.4,��
2021/03/17,17:30,0.642,0.941,0.593,1.178,0.821,0.374,0.659,0.620,��,7.8,��
2021/03/17,17:40,0.641,0.940,0.595,1.176,0.823,0.375,0.659,0.617,��,5.5,��
2021/03/17,17:50,0.644,0.941,0.594,1.178,0.823,0.375,0.660,0.620,��,8.5,��
2021/03/17,18:00,0.642,0.941,0.594,1.178,0.823,0.375,0.659,0.619,��,6.3,��
2021/03/17,18:10,0.640,0.939,0.595,1.177,0.823,0.374,0.660,0.620,��,7.4,��
2021/03/17,18:20,0.640,0.940,0.595,1.178,0.824,0.374,0.659,0.619,���k��,8.6,��
2021/03/17,18:30,0.641,0.940,0.593,1.178,0.823,0.376,0.658,0.619,���k��,7.9,��
2021/03/17,18:40,0.641,0.940,0.592,1.179,0.825,0.374,0.660,0.619,���k��,6.0,��
2021/03/17,18:50,0.642,0.938,0.594,1.179,0.824,0.375,0.659,0.619,�k��,6.5,��
2021/03/17,19:00,0.639,0.940,0.594,1.179,0.822,0.375,0.659,0.618,���k��,6.6,��
2021/03/17,19:10,0.641,0.939,0.594,1.177,0.822,0.375,0.660,0.619,���k��,4.8,��
2021/03/17,19:20,0.640,0.942,0.593,1.176,0.823,0.373,0.661,0.618,�k��,5.0,��
2021/03/17,19:30,0.639,0.938,0.592,1.177,0.825,0.374,0.659,0.618,���k��,6.4,��
2021/03/17,19:40,0.642,0.940,0.595,1.178,0.823,0.374,0.660,0.619,���k��,7.2,��
2021/03/17,19:50,0.640,0.938,0.595,1.178,0.824,0.375,0.661,0.620,���k��,8.2,��
2021/03/17,20:00,0.641,0.940,0.594,1.176,0.823,0.374,0.659,0.619,���k��,7.1,��
2021/03/17,20:10,0.639,0.940,0.595,1.178,0.822,0.372,0.660,0.617,�k��,6.6,��
2021/03/17,20:20,0.639,0.942,0.594,1.178,0.824,0.373,0.659,0.617,�k��,6.0,��
2021/03/17,20:30,0.639,0.941,0.594,1.178,0.822,0.374,0.661,0.618,�k�k��,6.1,��
2021/03/17,20:40,0.638,0.939,0.594,1.176,0.824,0.374,0.661,0.620,�k�k��,5.9,��
2021/03/17,20:50,0.640,0.938,0.594,1.179,0.822,0.373,0.660,0.620,�k,4.2,��
2021/03/17,21:00,0.639,0.938,0.591,1.179,0.825,0.374,0.659,0.618,�k�k��,4.0,��
2021/03/17,21:10,0.640,0.941,0.593,1.177,0.822,0.373,0.660,0.619,�k�k��,3.1,��
2021/03/17,21:20,0.639,0.938,0.594,1.177,0.822,0.374,0.660,0.619,�k�k��,2.6,��
2021/03/17,21:30,0.641,0.941,0.594,1.179,0.822,0.373,0.661,0.619,�k�k��,3.3,��
2021/03/17,21:40,0.638,0.940,0.592,1.177,0.822,0.374,0.660,0.619,�k,3.8,��
2021/03/17,21:50,0.640,0.940,0.594,1.178,0.822,0.373,0.659,0.619,�k�k��,4.8,��
2021/03/17,22:00,0.639,0.939,0.593,1.178,0.822,0.373,0.660,0.617,�k�k��,7.0,��
2021/03/17,22:10,0.639,0.941,0.593,1.178,0.824,0.373,0.660,0.618,�k��,7.9,��
2021/03/17,22:20,0.640,0.941,0.591,1.178,0.823,0.374,0.660,0.618,�k�k��,6.6,��
2021/03/17,22:30,0.640,0.941,0.594,1.177,0.823,0.374,0.660,0.619,�k�k��,6.5,��
2021/03/17,22:40,0.640,0.940,0.593,1.179,0.822,0.374,0.658,0.619,�k�k��,6.0,��
2021/03/17,22:50,0.639,0.938,0.593,1.178,0.823,0.373,0.659,0.620,�k�k��,5.8,��
2021/03/17,23:00,0.638,0.941,0.594,1.179,0.822,0.373,0.661,0.620,�k�k��,6.1,��
2021/03/17,23:10,0.638,0.937,0.592,1.180,0.824,0.373,0.658,0.620,�k��,6.0,��
2021/03/17,23:20,0.638,0.939,0.593,1.179,0.824,0.374,0.660,0.618,�k��,6.7,��
2021/03/17,23:30,0.638,0.940,0.591,1.177,0.820,0.372,0.660,0.618,�k��,6.0,��
2021/03/17,23:40,0.640,0.940,0.594,1.175,0.823,0.373,0.659,0.619,�k��,5.7,��
2021/03/17,23:50,0.640,0.940,0.592,1.178,0.821,0.373,0.659,0.618,�k��,5.2,��
